Home > Weather > Ilulissat > Past weeks

Flag for Greenland Past Weather in Ilulissat, Greenland — Yesterday and Last 2 Weeks

Now
41 °F

Light rain. Partly sunny.


Feels Like: 37 °F
Forecast: 42 / 46 °F
Wind: 6 mph from Southwest

Location: Jacobshavn Lufthavn

Current Time: Jun 26, 2016 at 5:17:16 PM

Latest Report: Jun 26, 2016 at 4:50 PM


Visibility: N/A

Pressure: 29.80 "Hg

Humidity: 87%

Dew Point: 37 °F

Location of IlulissatLocation

Past Weather in Ilulissat — Graph

°F

Ilulissat Temperature Yesterday

Maximum temperature yesterday: 46 °F (at 11:50 AM)
Minimum temperature yesterday: 39 °F (at 3:50 AM)
Average temperature yesterday: 44 °F

High & Low Weather Summary for the Past Weeks

 TemperatureHumidityPressure
High61 °F (Jun 22, 11:50 AM)100% (Jun 23, 12:50 PM)30.15 "Hg (Jun 23, 12:50 PM)
Low34 °F (Jun 16, 2:50 AM)31% (Jun 22, 11:50 AM)29.47 "Hg (Jun 22, 11:50 AM)
Average44 °F71%29.74 "Hg
* Reported Jun 11 3:50 PM — Jun 26 3:50 PM, Ilulissat, Weather by CustomWeather, © 2016

Note: Actual official high and low records may vary slightly from our data, if they occured in-between our weather recording intervals... More about our weather records

Advertising

Ilulissat Weather History for the Previous 24 Hours

Scroll right to see more
 ConditionsComfort  
Time TempWeatherWind HumidityBarometerVisibility
3:50 PM
Sun, Jun 26
41 °FLight rain. Broken clouds.7 mph87%29.80 "HgN/A
2:50 PM41 °FLight rain. Partly sunny.7 mph87%29.77 "HgN/A
1:50 PM43 °FLight rain. Broken clouds.7 mph81%29.77 "HgN/A
12:50 PM41 °FLight rain. Broken clouds.7 mph87%29.77 "HgN/A
11:50 AM43 °FLight rain. Broken clouds.8 mph87%29.77 "HgN/A
10:50 AM43 °FLight rain. Broken clouds.7 mph87%29.77 "HgN/A
9:50 AM43 °FLight rain. Broken clouds.2 mph87%29.74 "HgN/A
8:50 AM41 °FLight rain. Broken clouds.No wind87%29.74 "HgN/A
7:50 AM43 °FLight rain. Partly sunny.No wind87%29.74 "HgN/A
6:50 AM43 °FLight rain. Broken clouds.No wind81%29.71 "HgN/A
5:50 AM43 °FDrizzle. Overcast.3 mph81%29.71 "HgN/A
4:50 AM43 °FOvercast.6 mph81%29.68 "HgN/A
3:50 AM45 °FPartly sunny.6 mph76%29.65 "HgN/A
2:50 AM45 °FBroken clouds.7 mph76%29.65 "HgN/A
1:50 AM45 °FPartly sunny.6 mph76%29.62 "HgN/A
12:50 AM45 °FBroken clouds.5 mph71%29.62 "HgN/A
11:50 PM
Sat, Jun 25
46 °FPartly sunny.3 mph66%29.62 "HgN/A
10:50 PM46 °FPartly sunny.3 mph66%29.59 "HgN/A
9:50 PM46 °FPartly sunny.2 mph66%29.59 "HgN/A
8:50 PM46 °FPartly sunny.3 mph66%29.59 "HgN/A
7:50 PM46 °FPartly sunny.3 mph66%29.56 "HgN/A
5:50 PM46 °FPartly sunny.5 mph71%29.56 "HgN/A
Weather by CustomWeather, © 2016

See weather overviewHow to use our weather pages